TPC802 NGFU-NLWW

Flight info

Callsign TPC802
Flight time 1h 0m
Altitude 45000
Route BAXIL DCT MATAV
Aircraft C750/M-SBDE3FGHRWXY/S

Departure

Time 2026-04-28 14:56
Airport Funafuti International Airport (NGFU)

Arrival

Time 2026-04-28 15:56
Airport Hihifo Airport (NLWW)
Time Latitude Longitude Altitude Speed Heading
2026-04-28 14:41 -8.52480 179.19531 5 ft 0 kts 166°
2026-04-28 14:53 -8.52485 179.19538 5 ft 4 kts 130°
2026-04-28 14:53 -8.52541 179.19537 4 ft 16 kts 216°
2026-04-28 14:53 -8.52649 179.19446 4 ft 22 kts 223°
2026-04-28 14:53 -8.52756 179.19344 6 ft 20 kts 223°
2026-04-28 14:54 -8.52854 179.19247 5 ft 19 kts 231°
2026-04-28 14:54 -8.52900 179.19194 8 ft 7 kts 226°
2026-04-28 14:54 -8.52928 179.19168 10 ft 1 kts 205°
2026-04-28 14:54 -8.52931 179.19172 9 ft 2 kts 129°
2026-04-28 14:55 -8.52919 179.19193 10 ft 0 kts 44°
2026-04-28 14:55 -8.52913 179.19200 10 ft 6 kts 44°
2026-04-28 14:55 -8.52681 179.19415 5 ft 101 kts 43°
2026-04-28 14:55 -8.51992 179.20055 235 ft 145 kts 45°
2026-04-28 14:56 -8.51397 179.20894 870 ft 155 kts 76°
2026-04-28 14:56 -8.51406 179.22018 1410 ft 169 kts 103°
2026-04-28 14:56 -8.51988 179.23064 2210 ft 167 kts 128°
2026-04-28 14:56 -8.52828 179.23799 3197 ft 157 kts 137°
2026-04-28 14:57 -8.53698 179.24533 3762 ft 172 kts 135°
2026-04-28 14:57 -8.54332 179.25066 4025 ft 188 kts 136°
2026-04-28 14:57 -8.55807 179.26281 4599 ft 215 kts 138°
2026-04-28 14:57 -8.56966 179.27226 5358 ft 215 kts 138°
2026-04-28 14:58 -8.58134 179.28185 6069 ft 217 kts 138°
2026-04-28 14:58 -8.59319 179.29162 6713 ft 221 kts 138°
2026-04-28 14:58 -8.60547 179.30174 7180 ft 242 kts 138°
2026-04-28 14:58 -8.61932 179.31318 7609 ft 269 kts 138°
2026-04-28 14:59 -8.63394 179.32516 8620 ft 271 kts 138°
2026-04-28 14:59 -8.64853 179.33711 9640 ft 264 kts 138°
2026-04-28 14:59 -8.66312 179.34915 10116 ft 282 kts 138°
2026-04-28 14:59 -8.67911 179.36240 10120 ft 307 kts 138°
2026-04-28 15:00 -8.69560 179.37592 10110 ft 304 kts 138°
2026-04-28 15:00 -8.71188 179.38925 10100 ft 293 kts 138°
2026-04-28 15:00 -8.72729 179.40194 10099 ft 280 kts 138°
2026-04-28 15:00 -8.74264 179.41463 10245 ft 295 kts 138°
2026-04-28 15:01 -8.75912 179.42828 10499 ft 320 kts 138°
2026-04-28 15:01 -8.77716 179.44311 10698 ft 344 kts 139°
2026-04-28 15:01 -8.79579 179.45839 11470 ft 346 kts 139°
2026-04-28 15:01 -8.80189 179.46340 11725 ft 347 kts 139°
2026-04-28 15:02 -8.81648 179.47543 12256 ft 351 kts 138°
2026-04-28 15:02 -8.83553 179.49116 12995 ft 355 kts 138°
2026-04-28 15:02 -8.85481 179.50705 13690 ft 360 kts 138°
2026-04-28 15:02 -8.87436 179.52316 14299 ft 365 kts 138°
2026-04-28 15:03 -8.89410 179.53943 14927 ft 369 kts 138°
2026-04-28 15:03 -8.91409 179.55591 15548 ft 373 kts 138°
2026-04-28 15:03 -8.93430 179.57258 16165 ft 377 kts 138°
2026-04-28 15:03 -8.95448 179.58923 16813 ft 381 kts 139°
2026-04-28 15:04 -8.96530 179.59815 17158 ft 384 kts 139°
2026-04-28 15:04 -8.98564 179.61492 17819 ft 388 kts 139°
2026-04-28 15:04 -9.00668 179.63229 18461 ft 393 kts 139°
2026-04-28 15:04 -9.02770 179.64963 19077 ft 397 kts 139°
2026-04-28 15:05 -9.04918 179.66735 19728 ft 401 kts 139°
2026-04-28 15:05 -9.07089 179.68528 20374 ft 405 kts 139°
2026-04-28 15:05 -9.09285 179.70341 21012 ft 410 kts 139°
2026-04-28 15:05 -9.11505 179.72174 21663 ft 414 kts 139°
2026-04-28 15:06 -9.13755 179.74032 22313 ft 419 kts 139°
2026-04-28 15:06 -9.16023 179.75906 22948 ft 424 kts 138°
2026-04-28 15:06 -9.18322 179.77805 23568 ft 428 kts 139°
2026-04-28 15:06 -9.20641 179.79721 24113 ft 432 kts 139°
2026-04-28 15:07 -9.22983 179.81656 24686 ft 436 kts 139°
2026-04-28 15:07 -9.25336 179.83601 25237 ft 440 kts 139°
2026-04-28 15:07 -9.27713 179.85566 25793 ft 443 kts 139°
2026-04-28 15:07 -9.30113 179.87551 26358 ft 447 kts 139°
2026-04-28 15:08 -9.32531 179.89551 26917 ft 451 kts 139°
2026-04-28 15:08 -9.34970 179.91568 27478 ft 454 kts 139°
2026-04-28 15:08 -9.37429 179.93602 28037 ft 458 kts 139°
2026-04-28 15:08 -9.39906 179.95652 28578 ft 462 kts 139°
2026-04-28 15:09 -9.42406 179.97721 29113 ft 466 kts 139°
2026-04-28 15:09 -9.44923 179.99805 29639 ft 470 kts 139°
2026-04-28 15:09 -9.47464 -179.98091 30112 ft 473 kts 139°
2026-04-28 15:09 -9.49192 -179.96661 30408 ft 475 kts 139°
2026-04-28 15:10 -9.52590 -179.93846 31062 ft 477 kts 139°
2026-04-28 15:10 -9.55147 -179.91728 31765 ft 473 kts 139°
2026-04-28 15:10 -9.57683 -179.89627 32406 ft 470 kts 139°
2026-04-28 15:10 -9.60213 -179.87530 33034 ft 468 kts 139°
2026-04-28 15:11 -9.62727 -179.85446 33679 ft 466 kts 139°
2026-04-28 15:11 -9.65231 -179.83370 34259 ft 464 kts 139°
2026-04-28 15:11 -9.67728 -179.81299 34769 ft 463 kts 139°
2026-04-28 15:11 -9.70221 -179.79231 35275 ft 463 kts 139°
2026-04-28 15:12 -9.72713 -179.77163 35800 ft 462 kts 139°
2026-04-28 15:12 -9.75195 -179.75104 36333 ft 461 kts 139°
2026-04-28 15:12 -9.77677 -179.73044 36878 ft 460 kts 139°
2026-04-28 15:12 -9.80156 -179.70986 37422 ft 460 kts 139°
2026-04-28 15:13 -9.82630 -179.68932 37963 ft 459 kts 139°
2026-04-28 15:13 -9.85101 -179.66880 38515 ft 459 kts 139°
2026-04-28 15:13 -9.87569 -179.64831 39007 ft 458 kts 139°
2026-04-28 15:13 -9.90027 -179.62788 39529 ft 456 kts 139°
2026-04-28 15:14 -9.92476 -179.60753 40065 ft 454 kts 139°
2026-04-28 15:14 -9.94915 -179.58727 40603 ft 452 kts 139°
2026-04-28 15:14 -9.97344 -179.56707 41140 ft 450 kts 139°
2026-04-28 15:14 -9.99763 -179.54696 41630 ft 449 kts 139°
2026-04-28 15:15 -10.02179 -179.52686 42102 ft 448 kts 139°
2026-04-28 15:15 -10.03775 -179.51359 42413 ft 447 kts 140°
2026-04-28 15:15 -10.06987 -179.48687 43009 ft 446 kts 140°
2026-04-28 15:15 -10.09381 -179.46694 43455 ft 444 kts 140°
2026-04-28 15:16 -10.11770 -179.44706 43872 ft 443 kts 140°
2026-04-28 15:16 -10.14153 -179.42723 44269 ft 443 kts 140°
2026-04-28 15:16 -10.16532 -179.40743 44620 ft 442 kts 140°
2026-04-28 15:16 -10.18905 -179.38766 44872 ft 442 kts 140°
2026-04-28 15:17 -10.21299 -179.36771 44862 ft 450 kts 140°
2026-04-28 15:17 -10.25376 -179.33375 44866 ft 461 kts 140°
2026-04-28 15:18 -10.30400 -179.29188 44883 ft 473 kts 140°
2026-04-28 15:18 -10.35544 -179.24898 44877 ft 483 kts 140°
2026-04-28 15:19 -10.40778 -179.20532 44880 ft 491 kts 140°
2026-04-28 15:19 -10.46082 -179.16106 44878 ft 496 kts 140°
2026-04-28 15:20 -10.51431 -179.11639 44878 ft 500 kts 140°
2026-04-28 15:20 -10.56817 -179.07140 44879 ft 502 kts 140°
2026-04-28 15:21 -10.62225 -179.02620 44881 ft 504 kts 140°
2026-04-28 15:21 -10.67647 -178.98086 44882 ft 505 kts 140°
2026-04-28 15:22 -10.73078 -178.93543 44883 ft 506 kts 140°
2026-04-28 15:22 -10.78510 -178.88997 44882 ft 506 kts 140°
2026-04-28 15:23 -10.83946 -178.84445 44881 ft 506 kts 140°
2026-04-28 15:23 -10.89382 -178.79891 44882 ft 506 kts 140°
2026-04-28 15:24 -10.94814 -178.75338 44885 ft 506 kts 140°
2026-04-28 15:24 -11.00200 -178.70822 44881 ft 505 kts 141°
2026-04-28 15:25 -11.05660 -178.66241 44881 ft 505 kts 141°
2026-04-28 15:25 -11.11050 -178.61716 44885 ft 505 kts 141°
2026-04-28 15:26 -11.16477 -178.57159 44887 ft 505 kts 141°
2026-04-28 15:26 -11.21901 -178.52601 44887 ft 506 kts 141°
2026-04-28 15:27 -11.27326 -178.48041 44886 ft 505 kts 141°
2026-04-28 15:27 -11.32744 -178.43484 44883 ft 505 kts 141°
2026-04-28 15:28 -11.38160 -178.38926 44891 ft 505 kts 141°
2026-04-28 15:28 -11.43570 -178.34371 44889 ft 505 kts 141°
2026-04-28 15:29 -11.48984 -178.29810 44887 ft 504 kts 141°
2026-04-28 15:29 -11.54386 -178.25257 44888 ft 504 kts 141°
2026-04-28 15:30 -11.59785 -178.20705 44888 ft 503 kts 141°
2026-04-28 15:30 -11.65162 -178.16168 44881 ft 501 kts 141°
2026-04-28 15:31 -11.70524 -178.11642 44880 ft 500 kts 141°
2026-04-28 15:31 -11.75889 -178.07111 44887 ft 501 kts 141°
2026-04-28 15:31 -11.78578 -178.04839 44518 ft 504 kts 141°
2026-04-28 15:32 -11.81281 -178.02555 43786 ft 503 kts 141°
2026-04-28 15:32 -11.83973 -178.00279 43117 ft 503 kts 141°
2026-04-28 15:32 -11.86669 -177.97999 42456 ft 504 kts 141°
2026-04-28 15:32 -11.89378 -177.95708 41790 ft 506 kts 141°
2026-04-28 15:33 -11.92098 -177.93407 41124 ft 509 kts 141°
2026-04-28 15:33 -11.94833 -177.91092 40457 ft 512 kts 141°
2026-04-28 15:33 -11.97588 -177.88761 39779 ft 515 kts 141°
2026-04-28 15:33 -12.00348 -177.86424 39100 ft 517 kts 141°
2026-04-28 15:34 -12.03127 -177.84071 38391 ft 520 kts 141°
2026-04-28 15:34 -12.05913 -177.81710 37687 ft 521 kts 140°
2026-04-28 15:34 -12.08703 -177.79345 36994 ft 522 kts 140°
2026-04-28 15:34 -12.11498 -177.76976 36311 ft 523 kts 140°
2026-04-28 15:35 -12.14301 -177.74600 35620 ft 524 kts 139°
2026-04-28 15:35 -12.19929 -177.69825 34231 ft 528 kts 139°
2026-04-28 15:35 -12.22726 -177.67452 33533 ft 530 kts 139°
2026-04-28 15:36 -12.25571 -177.65038 32826 ft 533 kts 139°
2026-04-28 15:36 -12.28429 -177.62611 32122 ft 536 kts 139°
2026-04-28 15:36 -12.31307 -177.60165 31414 ft 539 kts 139°
2026-04-28 15:36 -12.34195 -177.57712 30699 ft 538 kts 139°
2026-04-28 15:37 -12.37058 -177.55280 29992 ft 533 kts 139°
2026-04-28 15:37 -12.39893 -177.52870 29247 ft 527 kts 139°
2026-04-28 15:37 -12.42695 -177.50487 28565 ft 522 kts 139°
2026-04-28 15:37 -12.45479 -177.48118 27877 ft 517 kts 139°
2026-04-28 15:38 -12.48229 -177.45779 27200 ft 513 kts 139°
2026-04-28 15:38 -12.50958 -177.43457 26527 ft 508 kts 139°
2026-04-28 15:38 -12.53665 -177.41151 25863 ft 503 kts 139°
2026-04-28 15:38 -12.56341 -177.38872 25203 ft 500 kts 139°
2026-04-28 15:39 -12.59003 -177.36605 24550 ft 495 kts 139°
2026-04-28 15:39 -12.61641 -177.34358 23900 ft 491 kts 139°
2026-04-28 15:39 -12.64254 -177.32131 23217 ft 488 kts 139°
2026-04-28 15:39 -12.66841 -177.29926 22561 ft 481 kts 139°
2026-04-28 15:40 -12.69397 -177.27745 21941 ft 475 kts 139°
2026-04-28 15:40 -12.71925 -177.25590 21317 ft 470 kts 139°
2026-04-28 15:40 -12.74423 -177.23458 20697 ft 465 kts 139°
2026-04-28 15:40 -12.76894 -177.21349 20090 ft 459 kts 139°
2026-04-28 15:41 -12.79333 -177.19267 19478 ft 454 kts 139°
2026-04-28 15:41 -12.81748 -177.17206 18891 ft 450 kts 139°
2026-04-28 15:41 -12.84140 -177.15162 18303 ft 445 kts 139°
2026-04-28 15:41 -12.86507 -177.13140 17675 ft 440 kts 139°
2026-04-28 15:42 -12.88847 -177.11141 17098 ft 436 kts 139°
2026-04-28 15:42 -12.91167 -177.09158 16525 ft 433 kts 139°
2026-04-28 15:42 -12.93468 -177.07191 15957 ft 428 kts 139°
2026-04-28 15:42 -12.95745 -177.05243 15392 ft 424 kts 139°
2026-04-28 15:43 -12.98000 -177.03315 14839 ft 420 kts 139°
2026-04-28 15:43 -13.00228 -177.01397 14286 ft 416 kts 138°
2026-04-28 15:43 -13.02094 -176.99178 13696 ft 410 kts 122°
2026-04-28 15:43 -13.03302 -176.96558 13166 ft 404 kts 110°
2026-04-28 15:44 -13.04267 -176.93855 12647 ft 400 kts 109°
2026-04-28 15:44 -13.05184 -176.91279 12133 ft 369 kts 109°
2026-04-28 15:44 -13.06050 -176.88905 11662 ft 344 kts 110°
2026-04-28 15:44 -13.06865 -176.86677 11249 ft 322 kts 109°
2026-04-28 15:45 -13.07613 -176.84603 11004 ft 300 kts 109°
2026-04-28 15:45 -13.08318 -176.82647 10736 ft 287 kts 109°
2026-04-28 15:45 -13.09007 -176.80742 10473 ft 283 kts 109°
2026-04-28 15:45 -13.09680 -176.78880 10220 ft 282 kts 109°
2026-04-28 15:46 -13.10362 -176.76997 9979 ft 281 kts 109°
2026-04-28 15:46 -13.11041 -176.75116 9567 ft 283 kts 109°
2026-04-28 15:46 -13.11721 -176.73234 9021 ft 279 kts 109°
2026-04-28 15:46 -13.12391 -176.71382 8477 ft 275 kts 109°
2026-04-28 15:47 -13.13050 -176.69555 7935 ft 271 kts 109°
2026-04-28 15:47 -13.13699 -176.67759 7553 ft 266 kts 109°
2026-04-28 15:47 -13.14344 -176.65970 7213 ft 268 kts 109°
2026-04-28 15:47 -13.14992 -176.64177 6863 ft 267 kts 109°
2026-04-28 15:48 -13.15634 -176.62399 6516 ft 266 kts 110°
2026-04-28 15:48 -13.16275 -176.60621 6152 ft 265 kts 109°
2026-04-28 15:48 -13.16913 -176.58853 5796 ft 263 kts 109°
2026-04-28 15:48 -13.17545 -176.57101 5447 ft 261 kts 109°
2026-04-28 15:49 -13.18173 -176.55357 5109 ft 260 kts 109°
2026-04-28 15:49 -13.18800 -176.53617 4757 ft 260 kts 110°
2026-04-28 15:49 -13.19424 -176.51886 4414 ft 257 kts 109°
2026-04-28 15:49 -13.20043 -176.50167 4068 ft 256 kts 110°
2026-04-28 15:50 -13.20661 -176.48451 3738 ft 257 kts 110°
2026-04-28 15:50 -13.21277 -176.46742 3388 ft 253 kts 109°
2026-04-28 15:50 -13.21883 -176.45056 3051 ft 252 kts 110°
2026-04-28 15:50 -13.22491 -176.43371 2705 ft 251 kts 110°
2026-04-28 15:51 -13.23082 -176.41730 2400 ft 242 kts 109°
2026-04-28 15:51 -13.23652 -176.40133 2033 ft 234 kts 109°
2026-04-28 15:51 -13.23853 -176.38582 1974 ft 205 kts 91°
2026-04-28 15:51 -13.23833 -176.37247 1966 ft 169 kts 91°
2026-04-28 15:52 -13.23842 -176.36026 1988 ft 173 kts 92°
2026-04-28 15:52 -13.23846 -176.34780 1990 ft 173 kts 91°
2026-04-28 15:52 -13.23846 -176.33518 2003 ft 176 kts 91°
2026-04-28 15:52 -13.23842 -176.32266 2122 ft 175 kts 91°
2026-04-28 15:53 -13.23837 -176.31012 1983 ft 178 kts 92°
2026-04-28 15:53 -13.23844 -176.29809 1750 ft 153 kts 91°
2026-04-28 15:53 -13.23844 -176.28821 1552 ft 125 kts 91°
2026-04-28 15:53 -13.23844 -176.27961 1395 ft 121 kts 92°
2026-04-28 15:54 -13.23843 -176.27091 1264 ft 123 kts 93°
2026-04-28 15:54 -13.23844 -176.26213 1115 ft 126 kts 92°
2026-04-28 15:54 -13.23843 -176.25329 998 ft 119 kts 92°
2026-04-28 15:54 -13.23827 -176.24485 789 ft 119 kts 93°
2026-04-28 15:55 -13.23830 -176.23623 590 ft 123 kts 95°
2026-04-28 15:55 -13.23822 -176.22748 494 ft 122 kts 94°
2026-04-28 15:55 -13.23821 -176.21871 360 ft 123 kts 97°
2026-04-28 15:55 -13.23838 -176.21008 187 ft 117 kts 93°
2026-04-28 15:56 -13.23835 -176.20236 129 ft 95 kts 90°
2026-04-28 15:56 -13.23834 -176.19771 131 ft 39 kts 89°
2026-04-28 15:56 -13.23842 -176.19617 131 ft 11 kts 118°
2026-04-28 15:56 -13.23870 -176.19594 127 ft 6 kts 152°
2026-04-28 15:57 -13.23933 -176.19588 125 ft 13 kts 182°
2026-04-28 15:57 -13.23984 -176.19587 123 ft 1 kts 179°
2026-04-28 15:57 -13.23993 -176.19587 122 ft 4 kts 182°
2026-04-28 15:57 -13.24033 -176.19603 119 ft 2 kts 209°
2026-04-28 15:58 -13.24067 -176.19624 122 ft 5 kts 223°
2026-04-28 15:58 -13.24071 -176.19637 119 ft 2 kts 244°
2026-04-28 15:58 -13.24073 -176.19657 122 ft 0 kts 270°